Location: Newark
(9.4667°S, 159.8167°E)
Time: 23:56:20
(UTC+00:00)

Courier 1B Rocket - Pass Details

Date: 24 November 2019
Orbit: 920 x 1202 km, 28.2° (Epoch: 07 December)

Event Time Altitude Azimuth Distance (km) Brightness Sun altitude
Rises 10:07:20 0° 313° (NW) 4,060 8.4 -36.5°
Reaches altitude 10° 10:10:17 10° 319° (NW) 3,114 7.7 -37.1°
Enters shadow 10:10:55 13° 321° (NW) 2,917 7.5 -37.3°
Maximum altitude 10:17:43 47° 31° (NNE) 1,534 - -38.6°
Drops below altitude 10° 10:25:05 10° 102° (ESE) 3,092 - -40.1°
Sets 10:27:59 0° 108° (ESE) 4,030 - -40.7°
